FW4339 Weather Reports


time (UTC)temp
F
wind
direction
speed
knots
gust
knots
rain 1hr
in
rain 24hr
in
rain mn
in
humidity
%
barometer
mb
20260906093023 93 0.0 0.0 0.00 0.00 0.00 32 1015.6
20260906091518 92 0.0 0.0 0.00 0.00 0.00 32 1015.6
20260906084504 90 0.0 0.0 0.00 0.00 0.00 36 1015.5
20260906083001 89 0.0 0.0 0.00 0.00 0.00 33 1015.6
20260906081559 89 0.0 0.0 0.00 0.00 0.00 34 1015.7
20260906074554 87 0.0 0.0 0.00 0.00 0.00 46 1015.7
20260906073049 85 0.0 0.0 0.00 0.00 0.00 46 1015.6
20260906071546 84 0.0 0.0 0.00 0.00 0.00 47 1015.5
20260906064539 81 0.0 0.0 0.00 0.00 0.00 51 1015.3
20260906063036 80 0.0 0.0 0.00 0.00 0.00 53 1015.1
20260906061530 79 0.0 0.0 0.00 0.00 0.00 54 1015.1
20260906054520 76 0.0 0.0 0.00 0.00 0.00 54 1014.9
20260906053016 76 0.0 0.0 0.00 0.00 0.00 52 1014.9
20260906051512 75 0.0 0.0 0.00 0.00 0.00 52 1014.9
20260906044510 74 0.0 0.0 0.00 0.00 0.00 52 1014.6
20260906043013 74 0.0 0.0 0.00 0.00 0.00 52 1014.6
20260906041507 74 0.0 0.0 0.00 0.00 0.00 52 1014.5
20260906034505 74 0.0 0.0 0.00 0.00 0.00 49 1014.2
20260906033012 74 0.0 0.0 0.00 0.00 0.00 50 1014.1
20260906031503 74 0.0 0.0 0.00 0.00 0.00 50 1014.2
20260906024512 75 0.0 0.0 0.00 0.00 0.00 44 1013.8
20260906023013 75 0.0 0.0 0.00 0.00 0.00 44 1013.7
20260906021512 75 0.0 0.0 0.00 0.00 0.00 47 1013.6
20260906014503 75 0.0 0.0 0.00 0.00 0.00 47 1013.8
20260906013001 75 0.0 0.0 0.00 0.00 0.00 46 1013.9
20260906011608 75 0.0 0.0 0.00 0.00 0.00 44 1013.9
20260906010158 75 0.0 0.0 0.00 0.00 0.00 43 1013.7
20260906004604 76 0.0 0.0 0.00 0.00 0.00 44 1013.8
20260906003102 76 0.0 0.0 0.00 0.00 0.00 40 1013.9
20260906001555 76 0.0 0.0 0.00 0.00 0.00 38 1013.9
20260906000154 76 0.0 0.0 0.00 0.00 0.00 47 1014.1
20260905234553 76 0.0 0.0 0.00 0.00 0.00 47 1014.2
20260905233053 76 0.0 0.0 0.00 0.00 0.00 42 1014.1
20260905231549 76 0.0 0.0 0.00 0.00 0.00 45 1014.3
20260905230149 77 0.0 0.0 0.00 0.00 0.00 41 1014.3
20260905224553 77 0.0 0.0 0.00 0.00 0.00 44 1014.3
20260905223049 77 0.0 0.0 0.00 0.00 0.00 43 1014.2
20260905221546 77 0.0 0.0 0.00 0.00 0.00 40 1014.4
20260905220146 78 0.0 0.0 0.00 0.00 0.00 43 1014.4
20260905214540 78 0.0 0.0 0.00 0.00 0.00 45 1014.5
20260905213040 78 0.0 0.0 0.00 0.00 0.00 39 1014.7
20260905211544 79 0.0 0.0 0.00 0.00 0.00 38 1014.7
20260905210135 79 0.0 0.0 0.00 0.00 0.00 45 1014.7
20260905204553 80 0.0 0.0 0.00 0.00 0.00 35 1014.7
20260905203049 80 0.0 0.0 0.00 0.00 0.00 31 1014.7
20260905201548 80 0.0 0.0 0.00 0.00 0.00 32 1014.6
20260905200149 81 0.0 0.0 0.00 0.00 0.00 32 1014.6
20260905194559 81 0.0 0.0 0.00 0.00 0.00 31 1014.7
20260905193049 81 0.0 0.0 0.00 0.00 0.00 31 1014.7
20260905191556 81 0.0 0.0 0.00 0.00 0.00 31 1014.8
20260905190149 81 0.0 0.0 0.00 0.00 0.00 30 1014.7
20260905184606 81 0.0 0.0 0.00 0.00 0.00 30 1014.6
20260905183048 82 0.0 0.0 0.00 0.00 0.00 30 1014.6
20260905181555 82 0.0 0.0 0.00 0.00 0.00 31 1014.6
20260905180143 83 0.0 0.0 0.00 0.00 0.00 31 1014.4
20260905174532 83 0.0 0.0 0.00 0.00 0.00 30 1014.4
20260905173034 83 0.0 0.0 0.00 0.00 0.00 30 1014.3
20260905171532 83 0.0 0.0 0.00 0.00 0.00 30 1014.1
20260905170133 84 0.0 0.0 0.00 0.00 0.00 29 1014.1
20260905164529 84 0.0 0.0 0.00 0.00 0.00 29 1014.0
20260905163028 86 0.0 0.0 0.00 0.00 0.00 28 1014.0
20260905161527 87 0.0 0.0 0.00 0.00 0.00 27 1014.2
20260905160128 88 0.0 0.0 0.00 0.00 0.00 25 1014.3
20260905154533 90 0.0 0.0 0.00 0.00 0.00 25 1014.3
20260905153026 91 0.0 0.0 0.00 0.00 0.00 24 1014.3
20260905151527 92 0.0 0.0 0.00 0.00 0.00 23 1014.3
20260905150126 92 0.0 0.0 0.00 0.00 0.00 25 1014.2
20260905144534 92 0.0 0.0 0.00 0.00 0.00 25 1014.2
20260905143030 93 0.0 0.0 0.00 0.00 0.00 25 1014.2
20260905141530 95 0.0 0.0 0.00 0.00 0.00 26 1014.2
20260905140130 96 0.0 0.0 0.00 0.00 0.00 25 1014.2
20260905134520 95 0.0 0.0 0.00 0.00 0.00 24 1014.3
20260905133035 96 0.0 0.0 0.00 0.00 0.00 23 1014.4
20260905131519 96 0.0 0.0 0.00 0.00 0.00 23 1014.5
20260905130119 96 0.0 0.0 0.00 0.00 0.00 27 1014.7
20260905124528 96 0.0 0.0 0.00 0.00 0.00 25 1014.7
20260905123023 96 0.0 0.0 0.00 0.00 0.00 26 1014.8
20260905121524 96 0.0 0.0 0.00 0.00 0.00 26 1014.8
20260905120120 95 0.0 0.0 0.00 0.00 0.00 25 1014.9
20260905114516 95 0.0 0.0 0.00 0.00 0.00 26 1014.9
20260905113016 94 0.0 0.0 0.00 0.00 0.00 27 1015.0
20260905111515 94 0.0 0.0 0.00 0.00 0.00 26 1014.8
20260905110113 94 0.0 0.0 0.00 0.00 0.00 26 1014.9
20260905104509 94 0.0 0.0 0.00 0.00 0.00 27 1015.1
20260905103010 93 0.0 0.0 0.00 0.00 0.00 28 1015.0
20260905101506 93 0.0 0.0 0.00 0.00 0.00 29 1015.1
20260905100110 93 0.0 0.0 0.00 0.00 0.00 29 1015.2
20260905094505 93 0.0 0.0 0.00 0.00 0.00 30 1015.2